Tracking 20232 objects as of 19-Jan-2020
HD Live streaming from Space Station
objects crossing your sky now

DIAPASON (D1-A)

Track DIAPASON (D1-A) now!
10-day predictions
DIAPASON (D1-A) is classified as:


NORAD ID: 2016
Int'l Code: 1966-013A
Perigee: 504.5 km
Apogee: 2,357.2 km
Inclination: 34.1 °
Period: 114.3 minutes
Semi major axis: 7801 km
RCS: 1.2804 m2 (large)
Launch date: February 17, 1966
Source: France (FR)
Launch site: HAMMA GUIRA SPACE TRACK RANGE (HGSTR)
aabbcc
Your satellite tracking list
Your tracking list is empty




NASA's NSSDC Master Catalog

Two Line Element Set (TLE):
1  2016U 66013A   20018.72814312  .00000133  00000-0  37747-4 0  9993
2  2016  34.0950 117.5865 1187355 328.0102  25.3486 12.59820190444110
Source of the keplerian elements: AFSPC